YAOGAN 1

Satellite information

Favourite Embed

Satellite Type and Status

PAYLOADIN ORBIT

Key statistics

Satellite YAOGAN 1 at a glance.

Uptime

7074

Days in orbit

Revolutions

≈ 14.9

Per day

Orbit

SSO

Sun Synchronous Orbit

Inclination

97.8

Latest

Satellite identification and parameters

Extended collection of information and parameters for YAOGAN 1.

Object identification

Identified? True

Debris? False

Object name: YAOGAN 1

International designator: 2006-015A

Object number (NORAD): 29092

Object ID (CCSDS): 29092

Country: PEOPLES REPUBLIC OF CHINA (PRC)

Current information (Y/N): Y

RCS size: LARGE

Orbital parameters

Period: 96.834 minutes

Inclination: 97.7714 deg

SMA: 6985.197 km

Apoapsis: 608.192 km

Periapsis: 605.931 km

RAAN: 271.2706 deg

Eccentricy: 0.00016185

Argument of periapsis: 90.2055 deg

Mean anomaly: 269.9347 deg

Mean motion: 14.87081652 rev/day

Mean motion (dot): 0.00001449 rev/day2

B* drag term: 0.00016747845 1/REarth

Two-line elements (TLE)

Creation date: Sept. 6, 2025, 2:09 a.m.

Reference frame: TEME

Reference center: EARTH

Epoch: Sept. 5, 2025, 10:46 p.m. UTC

TLE line 0: 0 YAOGAN 1

TLE line 1: 1 29092U 06015A 25248.94895767 .00001449 00000-0 16748-3 0 9997

TLE line 2: 2 29092 97.7714 271.2706 0001618 90.2055 269.9347 14.87081652 47554

Live tracking on map

Real-time ground track for satellite YAOGAN 1.

In-orbit conjunctions

A list of the most updated potential collisions computed for object YAOGAN 1.

Target Orbit TCA Probability of collision Miss distance Type
FENGYUN 1C DEB SSO 2025-08-20 05:00:44 0.0002800553 715.0 (m) DEBRIS
COSMOS 2251 DEB LEO 2025-04-25 05:06:52 0.0001399978 839.0 (m) DEBRIS
IRIDIUM 33 DEB LEO 2024-11-14 19:56:12 0.0002650709 678.0 (m) DEBRIS
SL-8 DEB * LEO 2024-08-31 01:07:30 0.02068781 12.0 (m) DEBRIS
CZ-4 DEB SSO 2024-07-07 16:16:40 0.0004052177 150.0 (m) DEBRIS

Associated space launch

The Yaogan 1 (Remote Sensing Satellite-1) government remote sensing satellite, likely also used as a military reconnaissance satellite, was launched by CZ-4C rocket from China's Taiyuan space center on 26 April 2006. It is China's first space-based synthetic aperture radar (SAR) system. The military designation of the satellite is Jian Bing-5 (JB-5). The whole development project was funded by the PLA.

YAOGAN 1 was lifted into orbit during the mission ‘Long March 4C | Yaogan Weixing 1’, on board a Long March 4C space rocket.

The launch took place on April 26, 2006, 10:48 p.m. from Launch Complex 7.

For more information about the launch, click the button.

Launch to space Long March 4C | Yaogan Weixing 1
Long March 4C | Yaogan Weixing 1

Agency: N/A

Status: Launch Successful

Launch date: April 26, 2006, 10:48 p.m. UTC

Rocket: Long March 4C

Launch pad: Launch Complex 7

Location: Taiyuan Satellite Launch Center, People's Republic of China

...

Latest news about this satellite

There are no fresh news available about this satellite. Check back as we update our databases every day.


Newsletter sign-up

Weekly statistics, charts and insights to help you stay on top of the space industry.